Weather History for Orangeburg, SC

Change the Weather History Date:

Tuesday, March 19, 2013

  Actual Average Record
Temperature  
Mean Temperature 63 °F 58 °F  
Max Temperature 75 °F 70 °F 86 °F (2011)
Min Temperature 51 °F 45 °F 28 °F (1967)
Degree Days  
Heating Degree Days 2 8  
Month to date heating degree days 246 196  
Since 1 July heating degree days 1879 2128  
Cooling Degree Days 0 1  
Month to date cooling degree days 3 11  
Year to date cooling degree days 23 14  
Growing Degree Days 12 (Base 50)    
Moisture  
Dew Point 44 °F    
Average Humidity 70    
Maximum Humidity 100    
Minimum Humidity 17    
Precipitation  
Precipitation T in 0.12 in 1.80 in (1986)
Month to date precipitation 1.10 2.48  
Year to date precipitation 9.26 10.05  
Sea Level Pressure  
Sea Level Pressure 29.92 in    
Wind  
Wind Speed 8 mph (WNW)    
Max Wind Speed 17 mph    
Max Gust Speed 23 mph    
Visibility 7 miles    
Events Fog , Rain    
T = Trace of Precipitation, MM = Missing Value Source: NWS Daily Summary

Daily Weather History Graph

Daily Weather History Graph

Search for Another Location

Airport:

Trip Planner

Search our weather history database for the weather conditions in past years. The results will help you decide how hot, cold, wet, or windy it might be!

Date:

Astronomy

Mar. 19, 2013 Rise Set
Actual Time 7:28 AM EDT 7:34 PM EDT
Civil Twilight 7:03 AM EDT 7:59 PM EDT
Nautical Twilight 6:34 AM EDT 8:28 PM EDT
Astronomical Twilight 6:05 AM EDT 8:57 PM EDT
Moon 12:33 PM EDT (3/19) 2:04 AM EDT (3/19)
Length of Visible Light 12h 55m
Length of Day
12h 06m
Waxing Crescent, 49% of the Moon is Illuminated
Mar 19
Waxing Crescent
Mar 19
First Quarter
Mar 27
Full
Apr 3
Last Quarter
Apr 10
New

Hourly Weather History & Observations

Time (EDT) Temp. Dew Point Humidity Pressure Visibility Wind Dir Wind Speed Gust Speed Precip Events Conditions
12:13 AM 50.0 °F 48.2 °F 94% 29.88 in 10.0 mi ESE 4.6 mph 19.6 mph 0.01 in Rain Light Rain
12:27 AM 51.8 °F 48.2 °F 88% 29.88 in 10.0 mi SE 3.5 mph - 0.01 in   Mostly Cloudy
12:53 AM 51.1 °F 50.0 °F 96% 29.89 in 10.0 mi SW 6.9 mph - 0.01 in   Overcast
1:53 AM 51.1 °F 50.0 °F 96% 29.87 in 10.0 mi SW 3.5 mph - N/A   Overcast
2:41 AM 51.8 °F 50.0 °F 94% 29.88 in 1.8 mi West 5.8 mph - N/A   Overcast
2:49 AM 51.8 °F 50.0 °F 94% 29.88 in 1.2 mi West 4.6 mph - N/A   Overcast
2:53 AM 51.1 °F 50.0 °F 96% 29.88 in 1.2 mi West 5.8 mph - N/A   Overcast
3:18 AM 51.8 °F 51.8 °F 100% 29.87 in 0.8 mi Calm Calm - N/A   Mist
3:53 AM 52.0 °F 51.1 °F 97% 29.86 in 0.5 mi Calm Calm - N/A Fog Fog
4:53 AM 53.1 °F 51.1 °F 93% 29.86 in 0.2 mi West 3.5 mph - N/A Fog Fog
5:40 AM 53.6 °F 51.8 °F 94% 29.87 in 1.5 mi West 6.9 mph - N/A   Overcast
5:53 AM 53.1 °F 53.1 °F 100% 29.89 in 1.2 mi West 6.9 mph - N/A   Overcast
6:17 AM 53.6 °F 53.6 °F 100% 29.89 in 2.0 mi West 6.9 mph - N/A   Overcast
6:27 AM 53.6 °F 53.6 °F 100% 29.88 in 5.0 mi West 6.9 mph - N/A   Overcast
6:53 AM 54.0 °F 53.1 °F 97% 29.91 in 7.0 mi West 10.4 mph - 0.00 in Rain Light Rain
7:53 AM 53.1 °F 52.0 °F 96% 29.91 in 7.0 mi WNW 8.1 mph - 0.00 in   Overcast
8:51 AM 53.6 °F 51.8 °F 94% 29.92 in 8.0 mi WNW 8.1 mph - N/A   Overcast
8:53 AM 54.0 °F 51.1 °F 90% 29.93 in 8.0 mi WNW 9.2 mph - N/A   Overcast
9:48 AM 55.4 °F 51.8 °F 88% 29.94 in 10.0 mi NW 8.1 mph - N/A   Mostly Cloudy
9:53 AM 55.9 °F 51.1 °F 84% 29.94 in 10.0 mi WNW 9.2 mph - N/A   Scattered Clouds
10:53 AM 57.9 °F 50.0 °F 75% 29.96 in 10.0 mi NW 12.7 mph 19.6 mph N/A   Partly Cloudy
11:53 AM 62.1 °F 51.1 °F 67% 29.97 in 10.0 mi NW 10.4 mph 17.3 mph N/A   Clear
12:53 PM 66.0 °F 50.0 °F 56% 29.96 in 10.0 mi NW 11.5 mph 17.3 mph N/A   Clear
1:53 PM 69.1 °F 46.9 °F 45% 29.94 in 10.0 mi Variable 6.9 mph - N/A   Clear
2:53 PM 72.0 °F 41.0 °F 33% 29.91 in 10.0 mi West 9.2 mph 19.6 mph N/A   Clear
3:53 PM 73.9 °F 37.0 °F 26% 29.91 in 10.0 mi NW 11.5 mph 16.1 mph N/A   Clear
4:53 PM 73.9 °F 30.9 °F 21% 29.91 in 10.0 mi WNW 8.1 mph 18.4 mph N/A   Clear
5:53 PM 73.9 °F 28.9 °F 19% 29.92 in 10.0 mi West 12.7 mph - N/A   Clear
6:53 PM 71.1 °F 24.1 °F 17% 29.94 in 10.0 mi WNW 11.5 mph - N/A   Clear
7:53 PM 66.9 °F 27.0 °F 22% 29.96 in 10.0 mi WNW 9.2 mph - N/A   Clear
8:53 PM 64.0 °F 24.1 °F 22% 29.99 in 10.0 mi WNW 5.8 mph - N/A   Clear
9:53 PM 62.1 °F 24.1 °F 23% 30.01 in 10.0 mi NNW 4.6 mph - N/A   Clear
10:53 PM 59.0 °F 25.0 °F 27% 30.02 in 10.0 mi NNW 3.5 mph - N/A   Clear
11:53 PM 57.0 °F 27.0 °F 32% 30.03 in 10.0 mi NNW 3.5 mph - N/A   Clear